Flag for U.S.A. Weather past 2 weeks in Vista, California, U.S.A.

Now
52 °F

Sunny.


Feels Like: 52 °F
Forecast: 49 / 66 °F
Wind: 3 mph from Northeast

Location: McClellan-Palomar Airport

Current Time: Dec 21, 2014 at 7:35:22 AM

Latest Report: Dec 21, 2014 at 6:53 AM


Visibility: 9 mi

Pressure: 30.12 "Hg

Humidity: 86%

Dew point: 48 °F

Location of VistaLocation

Historic Weather in Vista — Graph

°F

Vista temperature yesterday

Maximum temperature yesterday: 64 °F (at 11:53 AM)
Minimum temperature yesterday: 50 °F (at 3:53 AM)
Average temperature yesterday: 57 °F

Past Weeks' High & Low Weather Summary

 TemperatureHumidityPressure
High78 °F (Dec 7, 11:53 AM)97% (Dec 6, 11:53 PM)30.23 "Hg (Dec 6, 11:53 PM)
Low47 °F (Dec 14, 5:53 AM)34% (Dec 9, 11:53 AM)29.87 "Hg (Dec 12, 4:53 AM)
Average58 °F77%30.06 "Hg
* Reported Dec 6 5:53 AM — Dec 21 5:53 AM, Vista, Weather by CustomWeather, © 2014

Note: Actual official high and low records may vary slightly from our data, if they occured in-between our weather recording intervals... More about our weather records

Advertising

Vista weather history for previous 24 hours

 ConditionsComfort  
Time TempWeatherWind HumidityBarometerVisibility
5:53 AM
Dec 21
52 °FClear.3 mph86%30.11 "Hg9 mi
4:53 AM53 °FClear.3 mph86%30.08 "Hg10 mi
3:53 AM54 °FClear.6 mph83%30.09 "Hg10 mi
2:53 AM55 °FClear.3 mph83%30.11 "Hg10 mi
1:53 AM56 °FClear.No wind84%30.13 "Hg10 mi
12:53 AM58 °FOvercast.3 mph81%30.13 "Hg10 mi
11:53 PM
Dec 20
58 °FOvercast.No wind84%30.13 "Hg9 mi
10:53 PM59 °FOvercast.3 mph81%30.14 "Hg10 mi
9:53 PM59 °FOvercast.No wind84%30.14 "Hg10 mi
8:53 PM60 °FOvercast.5 mph80%30.14 "Hg10 mi
7:53 PM60 °FOvercast.No wind80%30.14 "Hg10 mi
6:53 PM61 °FOvercast.No wind78%30.15 "Hg10 mi
5:53 PM60 °FOvercast.No wind80%30.14 "Hg10 mi
4:53 PM60 °FPassing clouds.3 mph78%30.12 "Hg10 mi
3:53 PM61 °FOvercast.5 mph75%30.12 "Hg10 mi
2:53 PM61 °FOvercast.6 mph75%30.12 "Hg10 mi
1:53 PM62 °FScattered clouds.8 mph67%30.12 "Hg10 mi
12:53 PM61 °FSunny.5 mph67%30.12 "Hg10 mi
11:53 AM64 °FSunny.No wind61%30.14 "Hg10 mi
10:53 AM61 °FSunny.3 mph65%30.17 "Hg10 mi
9:53 AM58 °FSunny.3 mph72%30.19 "Hg10 mi
8:53 AM54 °FSunny.3 mph83%30.18 "Hg10 mi
7:53 AM52 °FSunny.3 mph83%30.17 "Hg10 mi
Weather by CustomWeather, © 2014

See weather overviewHow to use our weather pages